{"data":{"norad_id":65983,"epoch":"2026-05-24T18:03:58.316256Z","epoch_age_seconds":86594,"freshness":"FRESH","line1":"1 65983U 25230K   26144.75275829  .00000079  00000+0  60229-4 0  9993","line2":"2 65983  81.3025 233.3644 0001206 119.6575 240.4702 13.84125099 30576","mean_motion":13.84125099,"eccentricity":0.0001206,"inclination_deg":81.3025,"raan_deg":233.3644,"arg_perigee_deg":119.6575,"mean_anomaly_deg":240.4702,"bstar":6.0229e-5,"rev_number":3057,"period_min":104.03683894182,"perigee_km":948.40819424465,"apogee_km":950.17557009103,"semimajor_km":7327.4288821678,"source":"CELESTRAK","updated_at":"2026-05-25T13:38:05.878863Z"}}